This demonstration page uses our WeatherBlox Daily Observations layout. Learn more.

Left ArrowRight Arrow

41.12389, -100.76542

Hourly Observations for March 3, 2019

Temp ( °F °C ) Dew Point ( °F °C ) Humidity (%) Winds ( mph kmh ) Pressure ( in mb ) Visibility ( mi km ) Precip ( " mm )
12:53 am 00:53 Cloudy with Light Snow 1 -17.2 -6 -21.1 72 72 NNE 14 22 30.57 1035 3 4 0.00 0.03
1:34 am 01:34 Cloudy with Light Snow 0 -17.8 -6 -21.1 76 76 NNE 15 24 30.74 1041 2 3 0.00 0.03
1:41 am 01:41 Cloudy with Light Snow 0 -17.8 -6 -21.1 76 76 NNE 12 19 30.75 1041 2 3 0.00 0.03
1:53 am 01:53 Cloudy with Light Snow 0 -17.8 -6 -21.1 76 76 NNE 13 20 30.60 1036 4 6 0.01 0.25
2:53 am 02:53 Mostly Cloudy -1 -18.3 -8 -22.2 72 72 NNE 12 19 30.60 1036 10 16 0.00 0.03
3:29 am 03:29 Cloudy with Light Snow -1 -18.3 -8 -22.2 72 72 NNE 12 19 30.75 1041 2 3 0.00 0.03
3:42 am 03:42 Cloudy with Light Snow -1 -18.3 -8 -22.2 72 72 NNE 14 22 30.75 1041 3 5 0.00 0.03
3:53 am 03:53 Cloudy with Light Snow -1 -18.3 -9 -22.8 68 68 NNE 13 20 30.60 1036 5 8 0.00 0.03
4:53 am 04:53 Cloudy with Light Snow -2 -18.9 -9 -22.8 72 72 NNE 8 13 30.60 1036 5 8 0.00 0.03
5:44 am 05:44 Cloudy with Light Snow -2 -18.9 -9 -22.8 72 72 NNE 12 19 30.77 1042 3 4 0.00 0.03
5:53 am 05:53 Cloudy with Light Snow -2 -18.9 -9 -22.8 72 72 NNE 10 17 30.62 1037 3 5 0.00 0.03
6:53 am 06:53 Cloudy with Haze -2 -18.9 -9 -22.8 72 72 NNE 8 13 30.63 1037 6 10 0.00 0.03
7:53 am 07:53 Cloudy -2 -18.9 -9 -22.8 72 72 N 10 17 30.64 1038 7 11 0.00 0.00
8:53 am 08:53 Cloudy -1 -18.3 -9 -22.8 68 68 N 10 17 30.66 1038 8 13 0.00 0.00
9:53 am 09:53 Mostly Cloudy 1 -17.2 -10 -23.3 59 59 N 10 17 30.65 1038 10 16 0.00 0.00
10:53 am 10:53 Cloudy 1 -17.2 -12 -24.4 54 54 N 12 19 30.65 1038 10 16 0.00 0.00
11:53 am 11:53 Partly Cloudy 2 -16.7 -14 -25.6 46 46 N 13 20 30.65 1038 10 16 0.00 0.00
12:53 pm 12:53 Sunny 3 -16.1 -10 -23.3 54 54 N 10 17 30.63 1037 10 16 0.00 0.00
1:53 pm 13:53 Mostly Sunny 5 -15 -8 -22.2 54 54 NNW 10 17 30.59 1036 10 16 0.00 0.00
2:53 pm 14:53 Sunny 5 -15 -7 -21.7 57 57 NW 13 20 30.58 1035 10 16 0.00 0.00
3:53 pm 15:53 Sunny 6 -14.4 -7 -21.7 54 54 NNW 14 22 30.56 1035 10 16 0.00 0.00
4:53 pm 16:53 Sunny 6 -14.4 -7 -21.7 54 54 NW 12 19 30.56 1035 10 16 0.00 0.00
5:53 pm 17:53 Sunny 5 -15 -8 -22.2 54 54 NNW 8 13 30.55 1035 10 16 0.00 0.00
6:53 pm 18:53 Clear -4 -20 -12 -24.4 68 68 NW 6 9 30.58 1036 10 16 0.00 0.00
7:53 pm 19:53 Clear -3 -19.4 -10 -23.3 71 71 N 5 7 30.58 1036 10 16 0.00 0.00
8:53 pm 20:53 Clear -6 -21.1 -12 -24.4 75 75 N 6 9 30.59 1036 10 16 0.00 0.00
9:53 pm 21:53 Clear -12 -24.4 -16 -26.7 81 81 NNW 7 11 30.61 1037 10 16 0.00 0.00
10:53 pm 22:53 Clear -10 -23.3 -15 -26.1 78 78 N 7 11 30.62 1037 10 16 0.00 0.00
11:53 pm 23:53 Clear -15 -26.1 -18 -27.8 86 86 NNW 3 6 30.63 1037 10 16 0.00 0.00

Powered by AerisWeather